Regional Weather Roundup
Issued by NWS Green Bay, WI

Home | Current Version | Previous Version | Text Only | Print | Product List | Glossary On
Versions: 1 2 3 4 5 6 7 8 9 10 11 12 13 14 15 16 17 18 19 20 21 22 23 24 25 26 27 28 29 30 31 32 33 34 35 36 37 38 39 40 41 42 43 44 45 46 47 48 49 50
000
ASUS43 KGRB 300911
RWRGRB

NORTH-CENTRAL AND NORTHEAST WISCONSIN REGIONAL WEATHER ROUNDUP
NATIONAL WEATHER SERVICE GREEN BAY WI
400 AM CDT MON MAY 30 2016

WIZ005-009-010>012-018-019-301000-
NORTH CENTRAL WISCONSIN

CITY           SKY/WX    TMP DP  RH WIND       PRES   REMARKS
IRONWOOD       CLEAR     54  52  94 W7        29.92S
MANITOWISH WTR NOT AVBL
ARBOR VITAE    CLEAR     52  51  96 CALM      29.96S
EAGLE RIVER    FOG       49  49 100 CALM      29.95F VSB 1
LAND O LAKES   CLEAR     49  49 100 CALM      29.96S FOG
RHINELANDER    FOG       51  50  96 W6        29.98S VSB 3/4
PHILLIPS       CLEAR     49  49 100 CALM      29.98R
ANTIGO         CLEAR     51  51 100 CALM      29.98S
TOMAHAWK       FOG       46  46  97 CALM      29.98S VSB 1/2
MERRILL        CLEAR    N/A N/A N/A CALM      29.98F FOG
$$

WIZ013-073-301000-
NORTHEAST WISCONSIN

CITY           SKY/WX    TMP DP  RH WIND       PRES   REMARKS
IRON MOUNTAIN  CLEAR     53  51  93 CALM      29.92F
MARINETTE      CLEAR     58  55  90 CALM      29.95R
OCONTO         CLEAR    N/A N/A N/A CALM      29.94S
$$

WIZ017-030-035>037-045-301000-
CENTRAL WISCONSIN

CITY           SKY/WX    TMP DP  RH WIND       PRES   REMARKS
MEDFORD        PTCLDY    56  56 100 W3        29.99S
WAUSAU         CLEAR     57  54  89 CALM      29.96S
MOSINEE        CLEAR     55  55 100 W5        29.99S
MARSHFIELD     CLEAR     55  52  89 W3        29.98S
WISC RAPIDS    PTCLDY    57  55  93 CALM      29.99S FOG
STEVENS POINT  FOG       52  52 100 CALM      29.99R VSB 1/2
WAUPACA        PTCLDY    58  58  99 CALM      29.97S
SHAWANO        CLEAR     58  55  89 W3        29.96S
CLINTONVILLE   CLEAR     59  55  88 W6        29.97R
WAUTOMA        CLEAR    N/A N/A N/A CALM      29.98
$$

WIZ038-039-048-051-301000-
FOX VALLEY

CITY           SKY/WX    TMP DP  RH WIND       PRES   REMARKS
NWS GREEN BAY  MOCLDY    61  57  87 W3        29.96R
APPLETON       CLEAR     59  55  88 W8        29.96S
OSHKOSH        CLEAR     62  57  83 W5        29.96S
FOND DU LAC    CLEAR     59  57  93 SE3       29.97S
$$

WIZ022-050-052-301000-
EAST CENTRAL WISCONSIN

CITY           SKY/WX    TMP DP  RH WIND       PRES   REMARKS
EPHRAIM        FAIR      57  56  94 W3        29.93S
STURGEON BAY   NOT AVBL
MANITOWOC      CLEAR     62  58  86 W7        29.96S
SHEBOYGAN      CLEAR     57  55  93 W3        29.97S
$$

LMZ563-521-522-541>543-301000-
LAKESHORE

STATION/POSITION TIME  TEMP    WIND        PRES    VSBY  WAVE
                       AIR SEA DIR/SP/G                  HT/PER
                 (UTC) (F)     (DEG/KT/KT) (MB)    (MI)  (FT/S)
SHEBOYGAN LKSHOR 0900   63     260/  9/ 10 1014.7S
KEWAUNEE LKSHORE 0800   62     310/  4/  5 1013.6R
NORTHPORT PIER   0800   63     260/  4/  7 1013.2S
N MID LAKE BUOY  0850   53 47  230/  8/ 10 1013.0R         1/ 4
CHAMBERS ISLAND  0800   61     210/  4/  6 1013.5S
MENOMINEE LKSHOR 0800   63     250/  5/  7 1012.7R
$$



USA.gov is the U.S. government's official web portal to all federal, state and local government web resources and services.